Location: Wildlife_Club
(35.6000°N, 81.4330°W)
Time: 01:16:27
(UTC-04:00)

A-11 Canister half - Pass Details

Date: 03 July 2019
Orbit: 1514 x 1686 km, 47.2° (Epoch: 21 August)

Event Time Altitude Azimuth Distance (km) Brightness Sun altitude
Rises 11:15:06 0° 277° (W) 4,929 11.3 58.2°
Reaches altitude 10° 11:18:34 10° 284° (WNW) 3,929 10.9 58.9°
Maximum altitude 11:28:01 43° 353° (N) 2,175 10.3 60.7°
Drops below altitude 10° 11:37:12 10° 63° (ENE) 3,815 11.5 62.5°
Sets 11:40:31 0° 71° (ENE) 4,775 11.9 63.1°
